Flag for Russia Weather past 2 weeks in Samara, Russia

Now
5 °F

More clouds than sun.


Feels Like: -6 °F
Forecast: 0 / 20 °F
Wind: 6 mph from South

Location: Samara

Current Time: Jan 30, 2015 at 6:21:31 PM

Latest Report: Jan 30, 2015 at 6:00 PM


Visibility: N/A

Pressure: 30.18 "Hg

Humidity: 78%

Dew point: 0 °F

Location of SamaraLocation

Historic Weather in Samara — Graph

°F

Samara temperature yesterday

Maximum temperature yesterday: 3 °F (at 1:30 PM)
Minimum temperature yesterday: -6 °F (at 9:00 AM)
Average temperature yesterday: -1 °F

Past Weeks' High & Low Weather Summary

 TemperatureHumidityPressure
High36 °F (Jan 15, 5:00 PM)100% (Jan 16, 5:30 PM)30.86 "Hg (Jan 16, 5:30 PM)
Low-15 °F (Jan 24, 3:00 AM)55% (Jan 27, 1:30 PM)29.95 "Hg (Jan 16, 7:00 AM)
Average8 °F79%30.37 "Hg
* Reported Jan 15 5:00 PM — Jan 30 5:00 PM, Samara, Weather by CustomWeather, © 2014

Note: Actual official high and low records may vary slightly from our data, if they occured in-between our weather recording intervals... More about our weather records

Advertising

Samara weather history for previous 24 hours

 ConditionsComfort  
Time TempWeatherWind HumidityBarometerVisibility
5:00 PM
Jan 30
7 °FMore clouds than sun.6 mph72%30.18 "HgN/A
4:30 PM7 °FMore clouds than sun.6 mph72%30.15 "HgN/A
4:00 PM7 °FMore clouds than sun.8 mph72%30.18 "HgN/A
3:30 PM7 °FMore clouds than sun.6 mph72%30.15 "HgN/A
3:00 PM7 °FMore clouds than sun.8 mph72%30.15 "HgN/A
2:30 PM7 °FMore clouds than sun.8 mph72%30.18 "HgN/A
2:00 PM7 °FMore clouds than sun.8 mph72%30.18 "HgN/A
1:30 PM5 °FPassing clouds.6 mph72%30.18 "HgN/A
1:00 PM5 °FPassing clouds.3 mph72%30.18 "HgN/A
12:30 PM3 °FSunny.3 mph72%30.18 "Hg10 mi
12:00 PM1 °FSunny.3 mph71%30.18 "Hg10 mi
11:30 AM0 °FIce fog.6 mph78%30.18 "Hg2 mi
11:00 AM0 °FIce fog.6 mph78%30.18 "Hg2 mi
10:30 AM-2 °FSunny.6 mph77%30.15 "Hg10 mi
10:00 AM-2 °FSunny.6 mph77%30.15 "Hg10 mi
9:30 AM-2 °FSunny.3 mph77%30.15 "Hg10 mi
9:00 AM-2 °FClear.6 mph77%30.15 "Hg10 mi
8:30 AM-2 °FClear.6 mph84%30.15 "Hg10 mi
8:00 AM0 °FClear.6 mph78%30.15 "Hg10 mi
7:30 AM0 °FOvercast.6 mph84%30.15 "HgN/A
7:00 AM0 °FClear.3 mph84%30.15 "Hg10 mi
6:30 AM1 °FClear.8 mph78%30.15 "Hg10 mi
6:00 AM0 °FClear.6 mph84%30.15 "Hg10 mi
5:30 AM0 °FClear.6 mph84%30.12 "Hg10 mi
5:00 AM0 °FClear.8 mph84%30.15 "Hg10 mi
4:30 AM0 °FClear.6 mph78%30.15 "Hg10 mi
4:00 AM0 °FClear.6 mph78%30.15 "Hg10 mi
3:30 AM0 °FPassing clouds.6 mph78%30.15 "HgN/A
3:00 AM-2 °FClear.3 mph77%30.15 "Hg10 mi
2:30 AM-2 °FClear.6 mph77%30.15 "Hg10 mi
2:00 AM-2 °FClear.3 mph84%30.15 "Hg10 mi
1:30 AM-2 °FClear.3 mph84%30.15 "Hg10 mi
1:00 AM0 °FClear.3 mph84%30.15 "Hg10 mi
12:30 AM-2 °FClear.6 mph84%30.15 "Hg10 mi
12:00 AM0 °FClear.6 mph84%30.15 "Hg10 mi
11:30 PM
Jan 29
0 °FPassing clouds.3 mph78%30.15 "HgN/A
11:00 PM0 °FClear.6 mph78%30.15 "Hg10 mi
10:30 PM0 °FClear.3 mph78%30.15 "Hg10 mi
10:00 PM0 °FPassing clouds.6 mph78%30.15 "HgN/A
9:30 PM0 °FClear.3 mph84%30.15 "Hg10 mi
9:00 PM0 °FClear.6 mph84%30.15 "Hg10 mi
8:30 PM1 °FClear.6 mph78%30.15 "Hg10 mi
8:00 PM0 °FClear.6 mph84%30.15 "Hg10 mi
7:30 PM0 °FClear.3 mph84%30.15 "Hg10 mi
7:00 PM0 °FLight snow. Ice fog.3 mph84%30.15 "Hg2 mi
6:30 PM0 °FLight snow. Ice fog.3 mph84%30.15 "Hg2 mi
6:00 PM0 °FSunny.8 mph78%30.15 "Hg10 mi
Weather by CustomWeather, © 2014

See weather overviewHow to use our weather pages